Location: Unspecified
(0.0000°N, 0.0000°E)
Time: 22:06:48
(UTC+00:00)

deb Explorer IX - Visible Passes

Search period start: 22 March 2017 00:00
Search period end: 01 April 2017 00:00
Orbit: 540 x 1127 km, 38.8° (Epoch: 17 March)

Date Brightness Start Highest point End Pass type
(mag) Time Alt. Az. Time Alt. Az. Time Alt. Az.
22 Mar ? 05:37:46 10° SSW 05:44:05 37° SE 05:50:49 10° ENE visible
22 Mar ? 18:24:48 10° NW 18:29:09 79° NE 18:33:12 10° SE visible
23 Mar ? 05:18:22 10° SSW 05:24:39 39° SE 05:31:26 10° ENE visible
24 Mar ? 04:58:59 10° SSW 05:05:13 41° SE 05:12:02 10° ENE visible
25 Mar ? 04:40:08 12° SSW 04:45:47 44° SE 04:52:36 10° ENE visible
26 Mar ? 04:22:46 24° SSW 04:26:23 46° SE 04:33:10 10° ENE visible
27 Mar ? 04:05:22 40° S 04:06:57 49° SE 04:13:44 10° ENE visible
28 Mar ? 03:47:55 51° SE 03:47:55 51° SE 03:54:17 10° ENE visible
28 Mar ? 05:29:31 10° W 05:35:12 32° NW 05:41:31 10° NNE visible
29 Mar ? 03:30:23 38° E 03:30:23 38° E 03:34:49 10° ENE visible
29 Mar ? 05:11:59 17° W 05:15:49 29° NW 05:21:53 10° NNE visible
30 Mar ? 03:12:46 24° ENE 03:12:46 24° ENE 03:15:22 10° ENE visible
30 Mar ? 04:54:22 23° WNW 04:56:27 27° NW 05:02:14 10° NNE visible
31 Mar ? 02:55:03 14° ENE 02:55:03 14° ENE 02:55:54 10° ENE visible
31 Mar ? 04:36:38 24° NW 04:37:06 25° NW 04:42:34 10° NNE visible
